Location: McFarlands Corners
(41.4117°N, 81.3382°W)
Time: 12:28:30
(UTC+00:00)

Transit 4A - Pass Details

Date: 18 February 2026
Orbit: 863 x 978 km, 66.8° (Epoch: 17 March)

Event Time Altitude Azimuth Distance (km) Brightness Sun altitude
Rises 19:52:31 0° 309° (NW) 3,636 11.0 28.9°
Reaches altitude 10° 19:56:56 10° 280° (W) 2,705 10.8 28.4°
Maximum altitude 19:59:07 12° 259° (W) 2,569 11.1 28.1°
Drops below altitude 10° 20:01:19 10° 239° (WSW) 2,713 11.8 27.9°
Sets 20:05:48 0° 210° (SSW) 3,662 12.2 27.3°
